Voltar ao catálogo

STARLINK-31013

AtivoComunicaçõesVLEO
NORAD 58526·PAYLOAD·🇺🇸 United States

Lançado Dec 7, 2023 de Cape Canaveral Space Force Station

Loading…

Próximas Passagens (próximas 24 horas)

TLE

AtualizadoSource: CelesTrak SupGP

Época: Sep 15, 2026, 01:46 UTC

1 58526C 23191U   26258.07409722  .00045055  00000+0  24983-2 0  2580
2 58526  42.9979 144.8288 0010926 188.7012 120.0488 15.12936833    13

Acompanhe STARLINK-31013 em tempo real com AllMySat

Download on the App Store